This demonstration page uses our WeatherBlox Daily Observations layout. Learn more.

Left ArrowRight Arrow

Hourly Observations for July 4, 2018

Temp ( °F °C ) Dew Point ( °F °C ) Humidity (%) Winds ( mph kmh ) Pressure ( in mb ) Visibility ( mi km ) Precip ( " mm )
12:51 am 00:51 Clear 86 30 34 1.1 15 15 NW 10 17 29.77 1008 10 16 N/A
1:51 am 01:51 Clear 84 28.9 35 1.7 17 17 NW 13 20 29.78 1008 10 16 N/A
2:51 am 02:51 Clear 82 27.8 36 2.2 19 19 NW 13 20 29.78 1009 10 16 N/A
3:51 am 03:51 Clear 82 27.8 36 2.2 19 19 WNW 14 22 29.80 1009 10 16 N/A
4:51 am 04:51 Clear 80 26.7 36 2.2 20 20 WNW 12 19 29.83 1010 10 16 N/A
5:51 am 05:51 Sunny 80 26.7 36 2.2 20 20 NW 10 17 29.86 1011 10 16 N/A
6:51 am 06:51 Sunny 85 29.4 37 2.8 18 18 NW 16 26 29.89 1012 10 16 N/A
7:51 am 07:51 Sunny 89 31.7 39 3.9 17 17 NW 17 28 29.90 1013 10 16 N/A
8:51 am 08:51 Sunny 90 32.2 39 3.9 17 17 NW 13 20 29.91 1013 10 16 N/A
9:51 am 09:51 Mostly Sunny 90 32.2 38 3.3 16 16 WNW 14 22 29.90 1013 10 16 N/A
10:51 am 10:51 Sunny 95 35 34 1.1 12 12 NNW 15 24 29.89 1012 10 16 N/A
11:51 am 11:51 Sunny 97 36.1 32 undefined 10 10 WNW 13 20 29.86 1011 10 16 N/A
12:51 pm 12:51 Sunny 99 37.2 31 -0.6 9 9 W 17 28 29.84 1010 10 16 N/A
1:51 pm 13:51 Sunny 101 38.3 34 1.1 10 10 W 15 24 29.81 1010 10 16 N/A
2:51 pm 14:51 Sunny 101 38.3 33 0.6 9 9 VRB 7 11 29.79 1009 10 16 N/A
3:51 pm 15:51 Sunny 102 38.9 33 0.6 9 9 W 9 15 29.78 1008 10 16 N/A
4:51 pm 16:51 Sunny 102 38.9 32 undefined 9 9 SW 9 15 29.76 1008 10 16 N/A
5:51 pm 17:51 Sunny 100 37.8 33 0.6 10 10 WSW 9 15 29.75 1008 10 16 N/A
6:51 pm 18:51 Sunny 100 37.8 33 0.6 10 10 NNW 5 7 29.75 1008 10 16 N/A
7:51 pm 19:51 Clear 98 36.7 32 undefined 10 10 WNW 5 7 29.76 1008 10 16 N/A
8:51 pm 20:51 Clear 92 33.3 33 0.6 12 12 NNW 6 9 29.79 1009 10 16 N/A
9:51 pm 21:51 Clear 92 33.3 36 2.2 14 14 WNW 12 19 29.81 1010 10 16 N/A
10:51 pm 22:51 Clear 89 31.7 35 1.7 15 15 NW 13 20 29.81 1010 10 16 N/A
11:51 pm 23:51 Clear 87 30.6 35 1.7 16 16 WNW 12 19 29.82 1010 10 16 N/A

Powered by AerisWeather